When you browse on this site, cookies collect data to enhance your experience and personalize the content and advertising you see.
Visit our Privacy Policy to learn more. By continuing to use the site, you agree to this use of cookies and data.
  • En España
  • Lista de países
  • Para 7 días
  • Temperatura del agua
  • Mapa Satelital
  • El tiempo en el mapa
  • Informadores
  • user-avatar
    Iniciar sesión

    Tiempo cada hora La Massana

    Hoy, 19 Diciembre, Miércoles

    Tiempo Temperatura Precipitaciones Viento Presión Humedad
    00:00 0°C° 0 mm 1 mps 610 mmHg 61%
    01:00 0°C° 0 mm 1 mps 609 mmHg 64%
    02:00 -1°C° 0 mm 1 mps 609 mmHg 68%
    03:00 -1°C° 0 mm 1 mps 609 mmHg 72%
    04:00 -1°C° 0 mm 1 mps 609 mmHg 75%
    05:00 -2°C° 0 mm 1 mps 608 mmHg 78%
    06:00 -2°C° 0 mm 1 mps 608 mmHg 81%
    07:00 -1°C° 0 mm 1 mps 609 mmHg 79%
    08:00 0°C° 0 mm 1 mps 609 mmHg 76%
    09:00 +1°C° 0 mm 1 mps 610 mmHg 74%
    10:00 +2°C° 0 mm 1 mps 610 mmHg 67%
    11:00 +2°C° 0 mm 2 mps 611 mmHg 60%
    12:00 +3°C° 0 mm 2 mps 611 mmHg 54%
    13:00 +2°C° 0.2 mm 2 mps 611 mmHg 58%
    14:00 +2°C° 0.2 mm 2 mps 611 mmHg 63%
    15:00 +2°C° 0.2 mm 2 mps 611 mmHg 67%
    16:00 -1°C° 0 mm 2 mps 610 mmHg 73%
    17:00 -2°C° 0 mm 2 mps 610 mmHg 79%
    18:00 -4°C° 0 mm 2 mps 610 mmHg 85%
    19:00 -4°C° 0 mm 2 mps 610 mmHg 84%
    20:00 -5°C° 0 mm 2 mps 610 mmHg 82%
    21:00 -3°C° 0 mm 1 mps 610 mmHg 81%
    22:00 -3°C° 0 mm 1 mps 610 mmHg 79%
    23:00 -3°C° 0 mm 1 mps 610 mmHg 76%

    Mañana, 20 Diciembre, Jueves

    Tiempo Temperatura Precipitaciones Viento Presión Humedad
    00:00 -3°C° 0 mm 1 mps 611 mmHg 74%
    01:00 -3°C° 0 mm 1 mps 611 mmHg 74%
    02:00 -3°C° 0 mm 1 mps 611 mmHg 73%
    03:00 -3°C° 0 mm 1 mps 611 mmHg 73%
    04:00 -3°C° 0 mm 1 mps 611 mmHg 74%
    05:00 -3°C° 0 mm 1 mps 611 mmHg 74%
    06:00 -3°C° 0 mm 1 mps 612 mmHg 75%
    07:00 -2°C° 0 mm 1 mps 612 mmHg 74%
    08:00 -1°C° 0 mm 1 mps 613 mmHg 72%
    09:00 -1°C° 0 mm 1 mps 613 mmHg 70%
    10:00 +1°C° 0 mm 1 mps 614 mmHg 64%
    11:00 +2°C° 0 mm 1 mps 614 mmHg 59%
    12:00 +4°C° 0 mm 1 mps 615 mmHg 53%
    13:00 +3°C° 0 mm 1 mps 615 mmHg 56%
    14:00 +3°C° 0 mm 1 mps 615 mmHg 59%
    15:00 +3°C° 0 mm 1 mps 615 mmHg 62%
    16:00 +1°C° 0 mm 1 mps 614 mmHg 68%
    17:00 -1°C° 0 mm 1 mps 614 mmHg 73%
    18:00 -2°C° 0 mm 1 mps 613 mmHg 79%
    19:00 -2°C° 0 mm 1 mps 614 mmHg 77%
    20:00 -2°C° 0 mm 1 mps 614 mmHg 75%
    21:00 -2°C° 0 mm 1 mps 614 mmHg 73%
    22:00 -2°C° 0 mm 1 mps 614 mmHg 73%
    23:00 -2°C° 0 mm 1 mps 614 mmHg 72%

    Pasado mañana, 21 Diciembre, Viernes

    Tiempo Temperatura Precipitaciones Viento Presión Humedad
    00:00 -2°C° 0 mm 1 mps 614 mmHg 71%
    01:00 -2°C° 0 mm 1 mps 614 mmHg 71%
    02:00 -2°C° 0 mm 1 mps 614 mmHg 71%
    03:00 -2°C° 0 mm 1 mps 614 mmHg 72%
    04:00 -2°C° 0 mm 1 mps 614 mmHg 71%
    05:00 -2°C° 0 mm 1 mps 614 mmHg 71%
    06:00 -1°C° 0 mm 1 mps 614 mmHg 70%
    07:00 0°C° 0 mm 1 mps 615 mmHg 66%
    08:00 +1°C° 0 mm 1 mps 615 mmHg 63%
    09:00 +2°C° 0 mm 1 mps 616 mmHg 59%
    10:00 +4°C° 0 mm 1 mps 617 mmHg 55%
    11:00 +6°C° 0 mm 1 mps 617 mmHg 52%
    12:00 +7°C° 0 mm 1 mps 618 mmHg 48%
    13:00 +7°C° 0 mm 1 mps 617 mmHg 52%
    14:00 +6°C° 0 mm 1 mps 617 mmHg 57%
    15:00 +6°C° 0 mm 1 mps 617 mmHg 61%
    16:00 +4°C° 0 mm 1 mps 616 mmHg 64%
    17:00 +3°C° 0 mm 1 mps 616 mmHg 67%
    18:00 +2°C° 0 mm 1 mps 615 mmHg 70%
    19:00 +2°C° 0 mm 1 mps 615 mmHg 69%
    20:00 +2°C° 0 mm 1 mps 615 mmHg 67%
    21:00 +2°C° 0 mm 1 mps 615 mmHg 65%
    22:00 +2°C° 0 mm 1 mps 615 mmHg 65%
    23:00 +2°C° 0 mm 1 mps 615 mmHg 64%

    22 Diciembre, Sábado

    Tiempo Temperatura Precipitaciones Viento Presión Humedad
    00:00 +2°C° 0 mm 1 mps 615 mmHg 63%
    01:00 +2°C° 0 mm 1 mps 615 mmHg 64%
    02:00 +1°C° 0 mm 2 mps 615 mmHg 66%
    03:00 +1°C° 0 mm 2 mps 615 mmHg 67%
    04:00 +1°C° 0 mm 2 mps 615 mmHg 69%
    05:00 +1°C° 0 mm 2 mps 615 mmHg 72%
    06:00 +1°C° 0 mm 2 mps 615 mmHg 74%
    07:00 +2°C° 0 mm 2 mps 616 mmHg 73%
    08:00 +3°C° 0 mm 2 mps 616 mmHg 72%
    09:00 +4°C° 0 mm 1 mps 617 mmHg 71%
    10:00 +6°C° 0 mm 1 mps 618 mmHg 67%
    11:00 +8°C° 0 mm 1 mps 618 mmHg 62%
    12:00 +9°C° 0 mm 1 mps 619 mmHg 58%
    13:00 +9°C° 0 mm 1 mps 618 mmHg 61%
    14:00 +8°C° 0 mm 1 mps 618 mmHg 65%
    15:00 +7°C° 0 mm 1 mps 618 mmHg 69%
    16:00 +6°C° 0 mm 1 mps 617 mmHg 73%
    17:00 +4°C° 0 mm 1 mps 616 mmHg 77%
    18:00 +3°C° 0 mm 1 mps 616 mmHg 81%
    19:00 +3°C° 0 mm 1 mps 616 mmHg 80%
    20:00 +2°C° 0 mm 1 mps 616 mmHg 78%
    21:00 +2°C° 0 mm 1 mps 616 mmHg 77%
    22:00 +2°C° 0 mm 1 mps 616 mmHg 76%
    23:00 +2°C° 0 mm 1 mps 616 mmHg 75%

    23 Diciembre, Domingo

    Tiempo Temperatura Precipitaciones Viento Presión Humedad
    00:00 +2°C° 0 mm 1 mps 616 mmHg 74%
    01:00 +2°C° 0 mm 1 mps 615 mmHg 72%
    02:00 +2°C° 0 mm 1 mps 615 mmHg 71%
    03:00 +2°C° 0 mm 1 mps 615 mmHg 70%
    04:00 +2°C° 0 mm 1 mps 615 mmHg 69%
    05:00 +2°C° 0 mm 1 mps 615 mmHg 68%
    06:00 +2°C° 0 mm 1 mps 615 mmHg 67%
    07:00 +3°C° 0 mm 1 mps 616 mmHg 64%
    08:00 +3°C° 0 mm 1 mps 616 mmHg 62%
    09:00 +4°C° 0 mm 1 mps 617 mmHg 59%
    10:00 +6°C° 0 mm 1 mps 617 mmHg 56%
    11:00 +8°C° 0 mm 1 mps 618 mmHg 53%
    12:00 +9°C° 0 mm 1 mps 618 mmHg 49%
    13:00 +9°C° 0 mm 1 mps 618 mmHg 53%
    14:00 +8°C° 0 mm 1 mps 617 mmHg 57%
    15:00 +8°C° 0 mm 1 mps 617 mmHg 61%
    16:00 +6°C° 0 mm 1 mps 616 mmHg 63%
    17:00 +5°C° 0 mm 1 mps 616 mmHg 65%
    18:00 +3°C° 0 mm 1 mps 615 mmHg 67%
    19:00 +3°C° 0 mm 1 mps 615 mmHg 63%
    20:00 +3°C° 0 mm 1 mps 615 mmHg 60%
    21:00 +3°C° 0 mm 1 mps 616 mmHg 57%
    22:00 +3°C° 0 mm 1 mps 616 mmHg 54%
    23:00 +3°C° 0 mm 1 mps 615 mmHg 52%

    24 Diciembre, Lunes

    Tiempo Temperatura Precipitaciones Viento Presión Humedad
    00:00 +3°C° 0 mm 1 mps 615 mmHg 50%
    01:00 +3°C° 0 mm 1 mps 615 mmHg 48%
    02:00 +3°C° 0 mm 1 mps 615 mmHg 46%
    03:00 +3°C° 0 mm 1 mps 615 mmHg 44%
    04:00 +3°C° 0 mm 1 mps 615 mmHg 44%
    05:00 +3°C° 0 mm 1 mps 615 mmHg 43%
    06:00 +3°C° 0 mm 1 mps 615 mmHg 43%
    07:00 +4°C° 0 mm 1 mps 615 mmHg 43%
    08:00 +5°C° 0 mm 1 mps 616 mmHg 43%
    09:00 +5°C° 0 mm 1 mps 616 mmHg 44%
    10:00 +7°C° 0 mm 1 mps 617 mmHg 42%
    11:00 +9°C° 0 mm 1 mps 617 mmHg 40%
    12:00 +11°C° 0 mm 1 mps 618 mmHg 38%
    13:00 +10°C° 0 mm 1 mps 617 mmHg 43%
    14:00 +9°C° 0 mm 1 mps 617 mmHg 48%
    15:00 +8°C° 0 mm 1 mps 616 mmHg 53%
    16:00 +7°C° 0 mm 1 mps 616 mmHg 54%
    17:00 +5°C° 0 mm 1 mps 615 mmHg 55%
    18:00 +4°C° 0 mm 1 mps 614 mmHg 56%
    19:00 +3°C° 0 mm 1 mps 614 mmHg 53%
    20:00 +3°C° 0 mm 1 mps 614 mmHg 50%
    21:00 +3°C° 0 mm 1 mps 614 mmHg 47%
    22:00 +3°C° 0 mm 1 mps 614 mmHg 46%
    23:00 +3°C° 0 mm 1 mps 614 mmHg 45%
    Mostrar más